星链-11303 (STARLINK-11303)

导读

STARLINK-11303是美国太空探索技术公司SpaceX星链星座的一员,于2024年11月25日发射升空。星链项目旨在构建全球卫星互联网星座,为全球偏远地区等提供高速宽带服务,该卫星入轨后将加入低轨星座组网,进一步拓展星链系统的全球覆盖范围与服务能力。

基本信息
目录编号:
62096
目录名称:
STARLINK-11303
国际标识:
2024-220J
轨道中心:
EARTH
卫星名称:
星链-11303
卫星全名:
星链-11303 (STARLINK-11303)
卫星状态:
在轨 (已飞行655 天)
发射日期:
2024-11-25 UTC
国别 :
美国 (US)
星等 :
--
该卫星已列入 空间交会检测服务 Space Conjunction Data Service (SCDS) ,当前飞行风险评估等级: 无高风险
轨道信息
数据来源 国际轨道数据
星历时间: 2026-09-11T02:25:26+0800
21小时前
查看轨道信息
半长轴: 6734.499km
偏心率: 0.0001996
轨道倾角: 43.001°
近地点辐角 262.528°
升交点赤经 7.261°
平近点角 97.536°
近地点: 355.017km
远地点: 357.707km
周期: 91.668分钟
每日圈数: 15.708867
详细信息
固有亮度:
5
最大亮度:
2.5
卫星平台:
Starlink V1.0
覆盖范围:
全球
运营商:
太空探索技术公司
运营商所在国:
美国
制造商(研发单位):
太空探索技术公司
制造商所在国:
美国
使用方式:
暂无
卫星简介
Starlink 计划是 SpaceX 推出的全球卫星互联网项目,通过发射低轨道卫星,为全球尤其是偏远地区提供高速、低延迟的互联网服务。自 2019 年起,Starlink 已部署数千颗卫星,旨在缩小全球数字鸿沟,推动互联网普及。该项目还为军事、航空等行业提供通信支持,带来广泛经济效益。
2D轨道图
3D轨道图
轨道高度分析图
轨道倾角分析图
轨道综合分析图
查看轨道综合分析图
交会数据列表
事件ID 空间交会对象 最接近时刻(TCA) 交会距离 交会风险概率(CRP) 交会风险指数(CRI) 操作
CDM_260912-154306-209606-291221
2026-09-12T
15:43:24+0000
0.573 km
远距离
7.368093E-5 中风险 0.72
CDM_260912-172706-209606-327321
2026-09-12T
17:27:05+0000
1.891 km
极远距离
1.866852E-6 低风险 0.4
CDM_260912-132606-209606-291221
2026-09-12T
13:26:07+0000
1.829 km
极远距离
1.810333E-6 低风险 0.4
CDM_260912-194406-209606-327321
2026-09-12T
19:44:21+0000
2.842 km
极远距离
8.569241E-7 极低风险 0.34
与全量物体交会距离演化趋势
与全量物体交会风险概率演化趋势